Location: Unspecified
(41.1637°N, 24.2901°E)
Time: 03:50:04
(UTC+02:00)

ISS - Pass Details

Date: 20 March 2023
Orbit: 413 x 423 km, 51.6° (Epoch: 01 April)

Event Time Altitude Azimuth Distance (km) Brightness Sun altitude
Rises 18:33:44 0° 262° (W) 2,350 1.6 -11.9°
Reaches altitude 10° 18:36:01 10° 274° (W) 1,487 0.5 -12.3°
Maximum altitude 18:38:57 28° 336° (NNW) 819 -1.9 -12.9°
Drops below altitude 10° 18:41:53 10° 37° (NE) 1,489 -1.2 -13.4°
Enters shadow 18:42:21 - 41° (NE) 1,658 -1.0 -13.5°
